Location: Newark
(43.0000°N, 1.6781°W)
Time: 09:41:06
(UTC+00:00)

SR - All Passes

Search period start: 30 September 2022 00:00
Search period end: 10 October 2022 00:00
Orbit: 573 x 879 km, 66.7° (Epoch: 29 September)

Date Brightness Start Highest point End Pass type
(mag) Time Alt. Az. Time Alt. Az. Time Alt. Az.
30 Sep - 04:27:12 10° N 04:29:54 14° NNE 04:32:30 10° ENE visible
30 Sep - 06:07:52 10° NNW 06:13:15 59° NE 06:18:09 10° SE daylight
30 Sep - 07:51:04 10° WNW 07:54:43 19° WSW 07:58:10 10° SSW daylight
30 Sep - 20:37:31 10° S 20:42:46 36° ESE 20:48:07 10° NE night (unlit)
30 Sep - 22:19:13 10° WSW 22:24:48 43° NW 22:30:23 10° NNE visible
01 Oct - 00:06:27 10° NW 00:08:27 12° NNW 00:10:28 10° N visible
01 Oct - 05:17:52 10° NNW 05:22:47 32° NE 05:27:19 10° ESE visible
01 Oct - 06:59:58 10° NW 07:04:55 39° WSW 07:09:26 10° S daylight
01 Oct - 19:48:58 10° SSE 19:52:56 19° ESE 19:56:56 10° ENE night (unlit)
01 Oct - 21:28:32 10° SW 21:34:25 74° WNW 21:40:20 10° NNE night (unlit)
01 Oct - 23:13:35 10° W 23:17:29 18° NW 23:21:22 10° N visible
02 Oct - 04:28:07 10° N 04:32:05 20° NE 04:35:49 10° E visible
02 Oct - 06:09:28 10° NNW 06:14:53 80° WSW 06:19:46 10° SSE daylight
02 Oct - 20:38:26 10° SSW 20:44:13 62° ESE 20:50:03 10° NE night (unlit)
02 Oct - 22:21:43 10° WSW 22:26:43 28° NW 22:31:42 10° NNE visible
03 Oct - 03:38:49 10° N 03:41:10 13° NNE 03:43:28 10° ENE visible
03 Oct - 05:19:17 10° NNW 05:24:36 54° NE 05:29:27 10° SE visible
03 Oct - 07:02:18 10° WNW 07:06:09 21° WSW 07:09:46 10° SSW daylight
03 Oct - 19:49:02 10° S 19:54:12 33° ESE 19:59:25 10° NE visible
03 Oct - 21:30:30 10° SW 21:36:09 46° NW 21:41:48 10° NNE night (unlit)
03 Oct - 23:17:23 10° NW 23:19:44 12° NNW 23:22:03 10° N visible
04 Oct - 04:29:19 10° NNW 04:34:06 30° NE 04:38:30 10° ESE visible
04 Oct - 06:11:18 10° NW 06:16:19 43° WSW 06:20:53 10° S daylight
04 Oct - 19:00:42 10° SE 19:04:23 17° ESE 19:08:06 10° ENE visible
04 Oct - 20:39:53 10° SW 20:45:47 80° WNW 20:51:43 10° NNE visible
04 Oct - 22:24:42 10° W 22:28:46 19° NW 22:32:49 10° N night (unlit)
05 Oct - 03:39:37 10° N 03:43:22 18° NE 03:46:54 10° E visible
05 Oct - 05:20:51 10° NNW 05:26:15 87° WSW 05:31:07 10° SSE visible
05 Oct - 07:06:12 10° W 07:07:14 11° W 07:08:15 10° WSW daylight
05 Oct - 19:49:52 10° SSW 19:55:37 57° ESE 20:01:23 10° NE visible
05 Oct - 21:32:55 10° WSW 21:38:02 29° NW 21:43:07 10° NNE visible
06 Oct - 02:50:27 10° N 02:52:25 12° NNE 02:54:21 10° NE visible
06 Oct - 04:30:41 10° NNW 04:35:56 49° NE 04:40:42 10° SE visible
06 Oct - 06:13:31 10° NW 06:17:34 23° WSW 06:21:20 10° SSW daylight
06 Oct - 19:00:35 10° SSE 19:05:37 30° ESE 19:10:41 10° NE visible
06 Oct - 20:41:46 10° SW 20:47:29 49° NW 20:53:11 10° NNE visible
06 Oct - 22:28:21 10° WNW 22:30:59 13° NNW 22:33:35 10° N visible
07 Oct - 03:40:46 10° NNW 03:45:23 28° NE 03:49:40 10° ESE visible
07 Oct - 05:22:38 10° NW 05:27:41 47° WSW 05:32:17 10° S visible
07 Oct - 18:12:26 10° SE 18:15:48 16° ESE 18:19:11 10° ENE visible
07 Oct - 19:51:14 10° SSW 19:57:09 86° WNW 20:03:04 10° NNE visible
07 Oct - 21:35:49 10° W 21:40:04 20° NW 21:44:15 10° N visible
08 Oct - 02:51:06 10° N 02:54:38 17° NE 02:57:58 10° ENE visible
08 Oct - 04:32:14 10° NNW 04:37:35 86° ENE 04:42:26 10° SSE visible
08 Oct - 06:16:52 10° W 06:18:40 12° W 06:20:24 10° WSW daylight
08 Oct - 19:01:18 10° S 19:07:00 52° ESE 19:12:42 10° NE visible
08 Oct - 20:44:07 10° WSW 20:49:20 31° NW 20:54:31 10° NNE visible
09 Oct - 02:02:09 10° NNE 02:03:39 11° NNE 02:05:07 10° NE visible
09 Oct - 03:42:05 10° NNW 03:47:14 45° NE 03:51:56 10° SE visible
09 Oct - 05:24:45 10° NW 05:28:57 25° WSW 05:32:52 10° SSW visible
09 Oct - 18:12:08 10° SSE 18:17:01 28° ESE 18:21:55 10° NE visible
09 Oct - 19:53:04 10° SW 19:58:49 53° NW 20:04:33 10° NNE visible
09 Oct - 21:39:20 10° WNW 21:42:14 14° NNW 21:45:04 10° N visible
